PROBA-2

Last updated on Fri Dec 29 2023 00:03:29 GMT+0000 (Coordinated Universal Time)

1 36037U 09059B 23361.53102575 .00000702 00000+0 17795-3 0 9995 2 36037 98.2243 182.9315 0013258 182.7363 177.3763 14.53732760750416
UTC large
Height (km)
Speed (km/s)
/
Latitude / Longitude
Inclination (degrees)
Orbital Period (minutes)
Azimuth
Elevation
Range (km)
Doppler Factor

Next 0 passes for location: London (51.5072 / 0.1276)

Sorry there are no passes over London.
PROBA-2